WUK5SV EGGW-LGMK

Flight info

Callsign WUK5SV
Flight time N/A
Altitude 33000
Route MATCH Q295 BRAIN P44 DAGGA M604 GASBA M197 REDFA L620 TACHA DCT PODIP DCT TESGA DCT DINKU M867 XERUM DCT BAVAX DCT RADIZ DCT NIPEL DCT ABISO DCT NEMEK DCT TUPUS DCT MEDUX UM867 KOGAT DCT ERANA UL737 TSL UN130 MES N139 ERIMA R32 RIGRO UR32 LETSO
Aircraft A321/M-SDE3FGHIRWY/LB1

Departure

Time 2026-05-06 16:07
Airport London Luton Airport (EGGW)

Arrival

Time N/A
Airport Mykonos Island National Airport (LGMK)
Time Latitude Longitude Altitude Speed Heading
2026-05-06 15:41 51.87969 -0.37265 509 ft 0 kts 161°
2026-05-06 15:54 51.87975 -0.37269 508 ft 4 kts 161°
2026-05-06 15:54 51.87996 -0.37280 508 ft 4 kts 160°
2026-05-06 15:55 51.88018 -0.37298 508 ft 4 kts 127°
2026-05-06 15:55 51.88024 -0.37321 508 ft 1 kts 87°
2026-05-06 15:55 51.88028 -0.37282 508 ft 3 kts 73°
2026-05-06 15:55 51.88029 -0.37275 508 ft 0 kts 72°
2026-05-06 16:00 51.88033 -0.37256 508 ft 3 kts 72°
2026-05-06 16:01 51.88043 -0.37204 508 ft 6 kts 75°
2026-05-06 16:01 51.88019 -0.37134 508 ft 9 kts 153°
2026-05-06 16:01 51.87975 -0.37108 508 ft 11 kts 162°
2026-05-06 16:01 51.87889 -0.37063 509 ft 16 kts 161°
2026-05-06 16:02 51.87785 -0.37009 516 ft 16 kts 162°
2026-05-06 16:02 51.87689 -0.36957 523 ft 13 kts 162°
2026-05-06 16:02 51.87626 -0.36988 522 ft 12 kts 248°
2026-05-06 16:02 51.87602 -0.37128 522 ft 14 kts 255°
2026-05-06 16:03 51.87576 -0.37298 522 ft 17 kts 265°
2026-05-06 16:03 51.87561 -0.37456 522 ft 14 kts 216°
2026-05-06 16:03 51.87495 -0.37580 522 ft 16 kts 254°
2026-05-06 16:03 51.87466 -0.37760 523 ft 18 kts 255°
2026-05-06 16:04 51.87433 -0.37942 524 ft 14 kts 254°
2026-05-06 16:04 51.87377 -0.38057 523 ft 8 kts 209°
2026-05-06 16:04 51.87361 -0.38071 523 ft 0 kts 207°
2026-05-06 16:05 51.87355 -0.38076 523 ft 1 kts 206°
2026-05-06 16:05 51.87334 -0.38093 522 ft 6 kts 206°
2026-05-06 16:05 51.87277 -0.38113 523 ft 11 kts 187°
2026-05-06 16:05 51.87227 -0.38213 523 ft 14 kts 259°
2026-05-06 16:06 51.87213 -0.38326 520 ft 5 kts 164°
2026-05-06 16:06 51.87213 -0.38292 521 ft 0 kts 73°
2026-05-06 16:06 51.87232 -0.38186 523 ft 40 kts 75°
2026-05-06 16:07 51.87376 -0.37341 522 ft 112 kts 75°
2026-05-06 16:07 51.87650 -0.35823 546 ft 165 kts 80°
2026-05-06 16:07 51.87973 -0.34029 1359 ft 159 kts 71°
2026-05-06 16:07 51.88272 -0.32289 1963 ft 164 kts 71°
2026-05-06 16:08 51.88591 -0.30423 2133 ft 182 kts 70°
2026-05-06 16:08 51.88956 -0.28348 2285 ft 200 kts 71°
2026-05-06 16:08 51.89273 -0.26039 2401 ft 224 kts 79°
2026-05-06 16:08 51.89347 -0.23394 2614 ft 247 kts 92°
2026-05-06 16:09 51.88765 -0.20712 3166 ft 262 kts 125°
2026-05-06 16:09 51.87363 -0.18750 3788 ft 274 kts 149°
2026-05-06 16:09 51.85641 -0.17444 4656 ft 271 kts 157°
2026-05-06 16:09 51.83872 -0.16399 5427 ft 271 kts 160°
2026-05-06 16:10 51.82077 -0.15424 6227 ft 272 kts 159°
2026-05-06 16:10 51.80294 -0.14405 6936 ft 273 kts 159°
2026-05-06 16:10 51.78641 -0.12957 7473 ft 277 kts 138°
2026-05-06 16:10 51.77423 -0.10543 8012 ft 280 kts 114°
2026-05-06 16:11 51.76962 -0.07516 8585 ft 281 kts 88°
2026-05-06 16:11 51.77268 -0.04500 9092 ft 285 kts 73°
2026-05-06 16:11 51.77773 -0.01373 9653 ft 290 kts 73°
2026-05-06 16:11 51.78279 0.01814 10168 ft 295 kts 73°
2026-05-06 16:12 51.78780 0.05144 10307 ft 316 kts 75°
2026-05-06 16:12 51.79298 0.08677 10439 ft 335 kts 75°
2026-05-06 16:12 51.79841 0.12449 10563 ft 353 kts 75°
2026-05-06 16:12 51.80408 0.16407 10689 ft 371 kts 75°
2026-05-06 16:13 51.81001 0.20558 10862 ft 385 kts 76°
2026-05-06 16:13 51.81611 0.24814 11300 ft 391 kts 75°
2026-05-06 16:13 51.82228 0.29122 11826 ft 395 kts 76°
2026-05-06 16:13 51.82850 0.33463 12345 ft 399 kts 76°
2026-05-06 16:14 51.83477 0.37857 12873 ft 403 kts 76°
2026-05-06 16:14 51.84106 0.42281 13415 ft 406 kts 76°
2026-05-06 16:14 51.84741 0.46757 13941 ft 410 kts 76°
2026-05-06 16:14 51.85380 0.51274 14423 ft 413 kts 76°
2026-05-06 16:15 51.86022 0.55828 14914 ft 416 kts 76°
2026-05-06 16:15 51.86665 0.60416 15443 ft 419 kts 76°
2026-05-06 16:15 51.87312 0.65038 15938 ft 422 kts 76°
2026-05-06 16:15 51.87959 0.69676 16433 ft 425 kts 76°
2026-05-06 16:16 51.88612 0.74365 16911 ft 428 kts 77°
2026-05-06 16:16 51.89269 0.79071 17387 ft 430 kts 77°
2026-05-06 16:16 51.89921 0.83756 17849 ft 433 kts 77°
2026-05-06 16:16 51.90582 0.88528 18285 ft 436 kts 77°
2026-05-06 16:17 51.91242 0.93334 18672 ft 438 kts 77°
2026-05-06 16:17 51.91903 0.98162 19059 ft 440 kts 77°
2026-05-06 16:17 51.92563 1.03017 19452 ft 443 kts 77°
2026-05-06 16:17 51.93226 1.07908 19826 ft 445 kts 77°
2026-05-06 16:18 51.93891 1.12809 20219 ft 447 kts 77°
2026-05-06 16:18 51.94562 1.17752 20607 ft 450 kts 77°
2026-05-06 16:18 51.95234 1.22711 20979 ft 452 kts 77°
2026-05-06 16:18 51.95907 1.27703 21336 ft 454 kts 77°
2026-05-06 16:19 51.96581 1.32726 21693 ft 457 kts 77°
2026-05-06 16:19 51.97255 1.37779 22041 ft 459 kts 78°
2026-05-06 16:19 51.97929 1.42857 22388 ft 462 kts 78°
2026-05-06 16:19 51.98604 1.47970 22721 ft 464 kts 78°
2026-05-06 16:20 51.99280 1.53106 23058 ft 466 kts 78°
2026-05-06 16:20 51.99957 1.58261 23386 ft 469 kts 78°
2026-05-06 16:20 52.00638 1.63461 23673 ft 471 kts 78°
2026-05-06 16:20 52.01320 1.68666 23942 ft 473 kts 78°
2026-05-06 16:21 52.02006 1.73924 24224 ft 475 kts 78°
2026-05-06 16:21 52.02677 1.79109 24504 ft 477 kts 78°
2026-05-06 16:21 52.03358 1.84404 24798 ft 479 kts 78°
2026-05-06 16:21 52.04039 1.89712 25075 ft 481 kts 79°
2026-05-06 16:22 52.04717 1.95027 25439 ft 480 kts 79°
2026-05-06 16:22 52.05394 2.00330 25857 ft 479 kts 79°
2026-05-06 16:22 52.06068 2.05616 26262 ft 478 kts 79°
2026-05-06 16:22 52.06741 2.10899 26662 ft 477 kts 79°
2026-05-06 16:23 52.07410 2.16167 27067 ft 476 kts 79°
2026-05-06 16:23 52.08045 2.21199 27452 ft 475 kts 79°
2026-05-06 16:23 52.08696 2.26411 27846 ft 474 kts 79°
2026-05-06 16:23 52.09349 2.31650 28243 ft 473 kts 79°
2026-05-06 16:24 52.10002 2.36886 28639 ft 472 kts 80°
2026-05-06 16:24 52.10623 2.41902 29012 ft 471 kts 80°
2026-05-06 16:24 52.11266 2.47118 29416 ft 470 kts 79°
2026-05-06 16:24 52.12121 2.52251 29788 ft 470 kts 74°
2026-05-06 16:25 52.13072 2.57238 30148 ft 469 kts 74°
2026-05-06 16:25 52.14055 2.62389 30468 ft 468 kts 74°
2026-05-06 16:25 52.15008 2.67390 30779 ft 468 kts 74°
2026-05-06 16:25 52.15972 2.72452 31084 ft 467 kts 74°
2026-05-06 16:26 52.16945 2.77562 31385 ft 466 kts 74°
2026-05-06 16:26 52.17902 2.82604 31684 ft 466 kts 74°
2026-05-06 16:26 52.18852 2.87650 31977 ft 465 kts 74°
2026-05-06 16:26 52.19784 2.92628 32259 ft 465 kts 74°
2026-05-06 16:27 52.20736 2.97734 32554 ft 464 kts 74°
2026-05-06 16:27 52.21659 3.02699 32823 ft 464 kts 74°
2026-05-06 16:27 52.22594 3.07745 32938 ft 466 kts 75°
2026-05-06 16:27 52.23530 3.12827 32947 ft 468 kts 76°
2026-05-06 16:28 52.24309 3.23275 32943 ft 463 kts 95°
2026-05-06 16:28 52.23113 3.33513 32938 ft 458 kts 113°
2026-05-06 16:29 52.20662 3.43069 32936 ft 457 kts 115°
2026-05-06 16:29 52.18164 3.52598 32931 ft 457 kts 116°
2026-05-06 16:30 52.16084 3.60505 32929 ft 457 kts 116°
2026-05-06 16:30 52.13157 3.71601 32929 ft 456 kts 116°
2026-05-06 16:31 52.10658 3.81009 32928 ft 456 kts 116°
2026-05-06 16:31 52.08115 3.90530 32928 ft 455 kts 116°
2026-05-06 16:32 52.05611 3.99886 32930 ft 455 kts 116°
2026-05-06 16:32 52.03077 4.09316 32937 ft 454 kts 116°
2026-05-06 16:33 52.00544 4.18702 32942 ft 453 kts 116°
2026-05-06 16:34 51.96732 4.32727 32936 ft 452 kts 116°
2026-05-06 16:34 51.94187 4.42054 32930 ft 452 kts 116°
2026-05-06 16:35 51.91656 4.51284 32929 ft 451 kts 116°
2026-05-06 16:35 51.89091 4.60627 32932 ft 451 kts 116°
2026-05-06 16:36 51.86553 4.69823 32922 ft 450 kts 117°
2026-05-06 16:36 51.83989 4.79066 32921 ft 450 kts 117°
2026-05-06 16:37 51.81420 4.88288 32924 ft 450 kts 117°
2026-05-06 16:37 51.78847 4.97497 32921 ft 449 kts 117°
2026-05-06 16:38 51.76265 5.06693 32917 ft 449 kts 117°
2026-05-06 16:38 51.73684 5.15858 32919 ft 449 kts 117°
2026-05-06 16:39 51.71120 5.24939 32922 ft 448 kts 117°
2026-05-06 16:39 51.68514 5.34107 32904 ft 448 kts 117°
2026-05-06 16:40 51.65916 5.43229 32901 ft 448 kts 117°
2026-05-06 16:40 51.63317 5.52340 32901 ft 447 kts 117°
2026-05-06 16:41 51.60707 5.61437 32897 ft 447 kts 118°
2026-05-06 16:41 51.58093 5.70498 32900 ft 447 kts 118°
2026-05-06 16:42 51.55476 5.79546 32898 ft 446 kts 118°
2026-05-06 16:42 51.52850 5.88576 32897 ft 446 kts 118°
2026-05-06 16:43 51.50220 5.97579 32898 ft 445 kts 118°
2026-05-06 16:43 51.47599 6.06554 32909 ft 444 kts 118°
2026-05-06 16:44 51.44970 6.15519 32908 ft 444 kts 118°
2026-05-06 16:44 51.42337 6.24451 32902 ft 443 kts 118°
2026-05-06 16:45 51.39698 6.33370 32901 ft 442 kts 119°
2026-05-06 16:45 51.37501 6.40763 32902 ft 442 kts 119°
2026-05-06 16:46 51.34841 6.49689 32899 ft 441 kts 119°
2026-05-06 16:46 51.32197 6.58544 32901 ft 441 kts 119°
2026-05-06 16:47 51.29544 6.67391 32869 ft 441 kts 119°
2026-05-06 16:47 51.26913 6.76154 32871 ft 440 kts 119°
2026-05-06 16:48 51.24246 6.84960 32868 ft 440 kts 119°
2026-05-06 16:48 51.21572 6.93746 32868 ft 440 kts 119°
2026-05-06 16:49 51.18901 7.02514 32867 ft 440 kts 119°
2026-05-06 16:49 51.16227 7.11277 32862 ft 439 kts 119°
2026-05-06 16:50 51.13549 7.20014 32863 ft 439 kts 120°
2026-05-06 16:50 51.10859 7.28759 32865 ft 439 kts 120°
2026-05-06 16:51 51.08169 7.37469 32859 ft 439 kts 120°
2026-05-06 16:51 51.05466 7.46171 32855 ft 439 kts 120°
2026-05-06 16:52 51.02754 7.54863 32847 ft 438 kts 120°
2026-05-06 16:52 51.00046 7.63532 32842 ft 438 kts 120°
2026-05-06 16:53 50.97336 7.72195 32832 ft 438 kts 120°
2026-05-06 16:53 50.94496 7.80757 32823 ft 435 kts 127°
2026-05-06 16:54 50.90589 7.87951 32811 ft 430 kts 137°
2026-05-06 16:54 50.86400 7.94738 32806 ft 430 kts 137°
2026-05-06 16:55 50.82252 8.01472 32804 ft 430 kts 137°
2026-05-06 16:55 50.78854 8.06983 32803 ft 430 kts 137°
2026-05-06 16:56 50.74668 8.13749 32800 ft 430 kts 137°
2026-05-06 16:56 50.70475 8.20478 32804 ft 430 kts 137°
2026-05-06 16:57 50.66279 8.27197 32798 ft 430 kts 137°
2026-05-06 16:57 50.62078 8.33921 32803 ft 429 kts 137°
2026-05-06 16:58 50.57889 8.40614 32810 ft 429 kts 137°
2026-05-06 16:58 50.53693 8.47284 32806 ft 429 kts 137°
2026-05-06 16:59 50.49495 8.53959 32818 ft 428 kts 137°
2026-05-06 16:59 50.45301 8.60606 32822 ft 428 kts 137°
2026-05-06 17:00 50.41070 8.67154 32818 ft 427 kts 138°
2026-05-06 17:00 50.36774 8.73590 32816 ft 427 kts 139°
2026-05-06 17:01 50.32530 8.79921 32813 ft 426 kts 139°
2026-05-06 17:01 50.28251 8.86320 32817 ft 426 kts 138°
2026-05-06 17:02 50.23968 8.92734 32808 ft 425 kts 138°
2026-05-06 17:02 50.19698 8.99112 32808 ft 425 kts 138°
2026-05-06 17:03 50.15424 9.05487 32805 ft 425 kts 138°
2026-05-06 17:03 50.11153 9.11836 32807 ft 425 kts 138°
2026-05-06 17:04 50.06872 9.18168 32808 ft 424 kts 138°
2026-05-06 17:04 50.02581 9.24496 32803 ft 424 kts 138°
2026-05-06 17:05 49.98320 9.30771 32805 ft 424 kts 139°
2026-05-06 17:05 49.94027 9.37088 32804 ft 424 kts 139°
2026-05-06 17:06 49.89739 9.43372 32811 ft 424 kts 139°
2026-05-06 17:06 49.85442 9.49654 32807 ft 424 kts 139°
2026-05-06 17:07 49.81137 9.55942 32810 ft 424 kts 139°
2026-05-06 17:07 49.76831 9.62199 32806 ft 425 kts 139°
2026-05-06 17:08 49.72523 9.68449 32809 ft 425 kts 139°
2026-05-06 17:08 49.68202 9.74688 32804 ft 425 kts 139°
2026-05-06 17:09 49.63912 9.80867 32809 ft 425 kts 139°
2026-05-06 17:09 49.59582 9.87104 32802 ft 426 kts 139°
2026-05-06 17:10 49.55242 9.93348 32805 ft 426 kts 139°
2026-05-06 17:10 49.50897 9.99579 32802 ft 426 kts 139°
2026-05-06 17:11 49.46550 10.05788 32806 ft 427 kts 140°
2026-05-06 17:11 49.42191 10.11996 32801 ft 427 kts 140°
2026-05-06 17:12 49.37835 10.18184 32806 ft 427 kts 140°
2026-05-06 17:12 49.33485 10.24355 32787 ft 428 kts 140°
2026-05-06 17:13 49.29109 10.30551 32791 ft 428 kts 140°
2026-05-06 17:13 49.24720 10.36729 32806 ft 428 kts 142°
2026-05-06 17:14 49.19804 10.41786 32807 ft 425 kts 152°
2026-05-06 17:14 49.14711 10.46415 32806 ft 426 kts 151°
2026-05-06 17:15 49.09647 10.51027 32814 ft 427 kts 152°
2026-05-06 17:15 49.04539 10.55670 32814 ft 427 kts 152°
2026-05-06 17:16 48.99427 10.60299 32818 ft 428 kts 152°
2026-05-06 17:16 48.94292 10.64932 32817 ft 428 kts 152°
2026-05-06 17:17 48.89192 10.69519 32812 ft 429 kts 152°
2026-05-06 17:17 48.84084 10.74102 32802 ft 430 kts 152°
2026-05-06 17:18 48.79903 10.78858 32794 ft 436 kts 138°
2026-05-06 17:18 48.75817 10.85697 32780 ft 438 kts 136°
2026-05-06 17:19 48.71724 10.92563 32767 ft 439 kts 136°
2026-05-06 17:19 48.67640 10.99378 32762 ft 440 kts 136°
2026-05-06 17:20 48.63522 11.06233 32762 ft 441 kts 137°
2026-05-06 17:20 48.59410 11.13072 32762 ft 441 kts 137°
2026-05-06 17:21 48.55272 11.19939 32766 ft 442 kts 137°
2026-05-06 17:21 48.51124 11.26794 32769 ft 443 kts 137°
2026-05-06 17:22 48.46970 11.33649 32777 ft 443 kts 137°
2026-05-06 17:22 48.42800 11.40509 32781 ft 444 kts 137°
2026-05-06 17:23 48.38624 11.47372 32779 ft 445 kts 137°
2026-05-06 17:23 48.34435 11.54239 32774 ft 446 kts 137°
2026-05-06 17:24 48.30235 11.61100 32768 ft 447 kts 138°
2026-05-06 17:24 48.26009 11.67950 32763 ft 447 kts 139°
2026-05-06 17:25 48.21551 11.74414 32771 ft 445 kts 143°
2026-05-06 17:25 48.16906 11.80580 32781 ft 446 kts 144°
2026-05-06 17:26 48.12269 11.86760 32792 ft 447 kts 143°
2026-05-06 17:26 48.08444 11.91982 32794 ft 448 kts 142°
2026-05-06 17:27 48.03842 11.98316 32801 ft 449 kts 143°
2026-05-06 17:27 47.98462 12.05653 32976 ft 451 kts 143°
2026-05-06 17:28 47.94563 12.10930 33195 ft 452 kts 143°
2026-05-06 17:28 47.92235 12.14081 33319 ft 452 kts 143°
2026-05-06 17:28 47.89905 12.17236 33446 ft 452 kts 143°
2026-05-06 17:28 47.87577 12.20386 33579 ft 452 kts 143°
2026-05-06 17:29 47.85253 12.23528 33703 ft 452 kts 143°
2026-05-06 17:29 47.82917 12.26680 33822 ft 452 kts 144°
2026-05-06 17:29 47.80617 12.29775 33928 ft 452 kts 144°
2026-05-06 17:29 47.78255 12.32946 34047 ft 452 kts 144°
2026-05-06 17:30 47.75951 12.36039 34151 ft 451 kts 144°
2026-05-06 17:30 47.73589 12.39202 34266 ft 451 kts 144°
2026-05-06 17:30 47.71255 12.42323 34375 ft 451 kts 143°
2026-05-06 17:30 47.68953 12.45403 34490 ft 451 kts 143°
2026-05-06 17:31 47.66623 12.48518 34630 ft 451 kts 143°
2026-05-06 17:31 47.61906 12.54813 34740 ft 452 kts 143°
2026-05-06 17:32 47.57297 12.61018 34738 ft 452 kts 143°
2026-05-06 17:32 47.52673 12.67286 34723 ft 447 kts 145°
2026-05-06 17:33 47.48095 12.73488 34740 ft 445 kts 145°
2026-05-06 17:33 47.43514 12.79634 34745 ft 444 kts 145°
2026-05-06 17:34 47.38929 12.85754 34756 ft 444 kts 145°
2026-05-06 17:34 47.34347 12.91861 34770 ft 444 kts 145°
2026-05-06 17:35 47.29766 12.97958 34771 ft 443 kts 145°
2026-05-06 17:35 47.25196 13.04041 34778 ft 442 kts 145°
2026-05-06 17:36 47.18335 13.13136 34784 ft 443 kts 145°
2026-05-06 17:36 47.13772 13.19154 34796 ft 443 kts 145°
2026-05-06 17:37 47.09171 13.25217 34798 ft 444 kts 145°
2026-05-06 17:37 47.04567 13.31268 34812 ft 445 kts 145°
2026-05-06 17:38 46.99954 13.37324 34829 ft 446 kts 145°
2026-05-06 17:38 46.95318 13.43387 34831 ft 447 kts 145°
2026-05-06 17:39 46.90674 13.49455 34839 ft 449 kts 145°
2026-05-06 17:39 46.85998 13.55545 34838 ft 450 kts 145°
2026-05-06 17:40 46.81338 13.61590 34840 ft 451 kts 145°
2026-05-06 17:40 46.76639 13.67676 34838 ft 452 kts 144°
2026-05-06 17:41 46.71920 13.73772 34844 ft 453 kts 144°
2026-05-06 17:41 46.67199 13.79857 34847 ft 453 kts 144°
2026-05-06 17:42 46.62476 13.85942 34853 ft 454 kts 144°
2026-05-06 17:42 46.57741 13.92018 34863 ft 453 kts 144°
2026-05-06 17:43 46.53000 13.98079 34867 ft 453 kts 144°
2026-05-06 17:43 46.48278 14.04118 34866 ft 453 kts 143°
2026-05-06 17:44 46.43694 14.10431 34878 ft 455 kts 141°
2026-05-06 17:44 46.39212 14.16940 34910 ft 456 kts 140°
2026-05-06 17:45 46.34709 14.23408 34911 ft 455 kts 141°
2026-05-06 17:45 46.30162 14.29778 34916 ft 455 kts 141°
2026-05-06 17:46 46.25628 14.36082 34917 ft 455 kts 141°
2026-05-06 17:46 46.21070 14.42437 34916 ft 455 kts 141°
2026-05-06 17:47 46.16515 14.48805 34917 ft 456 kts 141°
2026-05-06 17:47 46.11952 14.55157 34915 ft 456 kts 141°
2026-05-06 17:48 46.07370 14.61528 34914 ft 457 kts 141°
2026-05-06 17:48 46.02773 14.67884 34903 ft 458 kts 142°
2026-05-06 17:49 45.98197 14.74197 34907 ft 459 kts 141°
2026-05-06 17:49 45.93586 14.80541 34906 ft 459 kts 142°
2026-05-06 17:50 45.88960 14.86904 34904 ft 460 kts 141°
2026-05-06 17:50 45.84342 14.93257 34904 ft 460 kts 141°
2026-05-06 17:51 45.79702 14.99606 34908 ft 461 kts 142°
2026-05-06 17:51 45.75079 15.05908 34911 ft 461 kts 142°
2026-05-06 17:52 45.70425 15.12232 34909 ft 461 kts 142°
2026-05-06 17:52 45.65762 15.18550 34913 ft 462 kts 142°
2026-05-06 17:53 45.61092 15.24877 34909 ft 462 kts 142°
2026-05-06 17:53 45.56531 15.31358 34913 ft 466 kts 135°
2026-05-06 17:54 45.52346 15.38451 34915 ft 467 kts 135°
2026-05-06 17:54 45.48147 15.45516 34919 ft 467 kts 135°
2026-05-06 17:55 45.43938 15.52572 34922 ft 467 kts 135°
2026-05-06 17:55 45.39729 15.59617 34914 ft 467 kts 135°
2026-05-06 17:56 45.35538 15.66610 34922 ft 467 kts 135°
2026-05-06 17:56 45.31316 15.73640 34922 ft 468 kts 135°
2026-05-06 17:57 45.27095 15.80666 34924 ft 467 kts 135°
2026-05-06 17:57 45.22860 15.87681 34934 ft 467 kts 135°
2026-05-06 17:58 45.18693 15.94778 34934 ft 469 kts 133°
2026-05-06 17:58 45.14705 16.02037 34935 ft 469 kts 131°
2026-05-06 17:59 45.10715 16.09348 34933 ft 469 kts 132°
2026-05-06 17:59 45.06678 16.16597 34932 ft 469 kts 133°
2026-05-06 18:00 45.02607 16.23804 34927 ft 469 kts 133°
2026-05-06 18:00 44.98521 16.31005 34922 ft 470 kts 133°
2026-05-06 18:01 44.94439 16.38212 34922 ft 470 kts 133°
2026-05-06 18:01 44.90346 16.45440 34921 ft 471 kts 133°
2026-05-06 18:02 44.86246 16.52663 34916 ft 472 kts 134°
2026-05-06 18:02 44.82132 16.59881 34920 ft 473 kts 134°
2026-05-06 18:03 44.77992 16.67117 34926 ft 475 kts 134°
2026-05-06 18:03 44.73861 16.74332 34923 ft 476 kts 134°
2026-05-06 18:04 44.69698 16.81590 34925 ft 477 kts 135°
2026-05-06 18:04 44.65513 16.88860 34929 ft 478 kts 135°
2026-05-06 18:05 44.61311 16.96151 34927 ft 480 kts 135°
2026-05-06 18:05 44.57096 17.03437 34935 ft 481 kts 135°
2026-05-06 18:06 44.52893 17.10679 34943 ft 482 kts 135°
2026-05-06 18:06 44.48660 17.17960 34946 ft 482 kts 135°
2026-05-06 18:07 44.44417 17.25240 34949 ft 482 kts 136°
2026-05-06 18:07 44.40167 17.32516 34958 ft 483 kts 135°
2026-05-06 18:08 44.35905 17.39788 34972 ft 483 kts 135°
2026-05-06 18:08 44.31649 17.47043 34974 ft 483 kts 135°
2026-05-06 18:09 44.27380 17.54304 34978 ft 483 kts 135°
2026-05-06 18:09 44.23104 17.61549 34979 ft 483 kts 135°
2026-05-06 18:10 44.19553 17.67543 34980 ft 483 kts 135°
2026-05-06 18:10 44.14568 17.75930 34986 ft 483 kts 135°
2026-05-06 18:11 44.10984 17.81958 35003 ft 482 kts 135°
2026-05-06 18:11 44.06703 17.89143 35007 ft 482 kts 135°
2026-05-06 18:12 44.02426 17.96295 35006 ft 481 kts 135°
2026-05-06 18:12 43.98170 18.03398 35018 ft 481 kts 135°
2026-05-06 18:13 43.93871 18.10569 35025 ft 481 kts 135°
2026-05-06 18:13 43.89581 18.17702 35028 ft 482 kts 135°
2026-05-06 18:14 43.85276 18.24830 35023 ft 482 kts 135°
2026-05-06 18:14 43.80990 18.31902 35020 ft 482 kts 135°
2026-05-06 18:15 43.76673 18.39015 35015 ft 483 kts 135°
2026-05-06 18:15 43.72345 18.46134 35014 ft 484 kts 135°
2026-05-06 18:16 43.68025 18.53227 35010 ft 485 kts 135°
2026-05-06 18:16 43.63674 18.60348 35006 ft 486 kts 135°
2026-05-06 18:17 43.59306 18.67479 35006 ft 486 kts 134°
2026-05-06 18:17 43.54958 18.74568 35001 ft 487 kts 135°
2026-05-06 18:18 43.50572 18.81693 35007 ft 487 kts 134°
2026-05-06 18:18 43.46176 18.88813 35009 ft 488 kts 134°
2026-05-06 18:19 43.41778 18.95924 35020 ft 488 kts 134°
2026-05-06 18:19 43.37378 19.03026 35023 ft 488 kts 134°
2026-05-06 18:20 43.32969 19.10101 35032 ft 487 kts 134°
2026-05-06 18:20 43.28556 19.17184 35038 ft 487 kts 134°
2026-05-06 18:21 43.24164 19.24236 35046 ft 486 kts 134°